Wind_Speed
16 18 21 22 24 26 27 27 29 29 31 32 33 34 34 36 37 36 35 35 34 34 33 33 32 32 31 30 29 28 27 26 26 25 25 24 24 24
13 15 18 20 23 24 25 26 27 29 30 32 33 34 35 37 37 37 37 35 36 36 35 35 35 34 33 32 32 31 30 29 28 27 27 26 26 26
10 12 15 17 20 21 23 24 26 28 29 31 33 34 35 36 36 37 37 37 36 36 36 37 36 36 35 34 34 33 32 31 30 29 29 29 28 28
8 10 12 15 16 18 20 22 24 26 28 29 31 33 34 35 36 37 36 37 37 37 37 37 37 36 36 35 35 34 33 32 32 31 30 30 29 29
6 8 10 12 14 17 19 21 21 23 25 27 29 30 32 34 34 36 36 37 37 37 37 37 37 36 36 35 36 36 35 34 33 33 32 32 31 30
6 7 9 10 11 14 17 19 20 21 22 24 26 28 30 32 34 34 36 37 38 38 38 37 38 37 36 36 36 35 36 35 35 34 34 32 32 31
5 6 7 8 10 11 14 17 18 19 20 22 23 25 27 29 31 33 34 35 36 37 38 37 37 37 37 37 37 37 37 36 35 34 34 33 33 32
7 6 6 7 9 11 12 14 15 17 18 20 22 23 24 26 29 30 32 34 34 35 36 37 37 36 37 37 38 38 38 37 35 35 35 34 33 33
8 7 7 7 8 10 11 12 14 16 16 17 19 21 23 25 26 28 30 31 33 34 35 37 37 36 36 36 36 36 36 36 36 36 35 35 34 34
9 9 8 7 7 9 10 11 13 15 16 16 18 20 21 23 24 26 28 29 31 32 34 35 37 37 37 37 37 37 37 37 37 37 37 36 35 35
10 10 9 8 8 8 9 10 11 13 16 17 17 19 20 21 22 24 26 27 29 31 33 34 35 36 37 37 37 38 39 38 38 38 38 37 36 35
11 11 10 9 9 9 9 10 10 12 13 15 16 17 18 19 21 22 23 25 27 29 31 33 34 34 35 36 37 38 38 39 38 38 39 39 38 37
12 12 11 11 10 10 10 10 10 11 12 14 15 16 17 18 20 22 23 24 25 26 28 31 33 35 35 35 36 36 37 37 37 37 38 38 38 38
13 12 12 12 12 11 10 10 11 12 12 14 15 16 17 19 20 21 22 24 24 26 27 30 32 33 34 34 34 35 36 37 38 38 38 38 38 38
14 13 13 12 12 12 12 12 11 12 13 14 15 16 17 19 20 21 22 23 24 26 27 29 30 31 32 33 34 35 36 36 37 38 38 38 38 37
15 14 14 14 14 14 14 14 14 13 14 14 15 17 18 19 20 21 23 24 25 27 28 29 30 32 33 34 34 35 35 35 35 36 37 37 36 36
16 16 16 15 16 16 16 16 15 15 15 16 17 18 19 19 20 22 23 25 26 27 28 29 30 31 31 32 33 33 34 34 34 34 35 35 35 35
18 18 18 18 18 18 18 18 18 18 18 18 18 19 20 21 22 23 24 26 26 27 28 29 30 31 31 32 32 32 33 33 34 35 35 35 35 35
21 21 20 20 20 20 21 21 21 21 22 22 22 22 23 23 24 25 25 27 27 28 29 30 31 32 32 32 32 32 33 33 34 34 35 35 35 34
24 24 24 24 23 23 24 24 24 25 25 26 26 26 26 27 27 28 28 28 29 29 30 31 32 33 33 33 33 33 34 34 34 34 35 35 35 35
26 26 27 27 27 27 27 27 27 28 28 29 29 30 31 31 31 31 31 32 32 32 32 33 33 34 35 35 35 34 35 35 35 35 35 36 36 36
29 29 29 29 30 30 30 30 31 31 31 32 32 33 34 35 35 35 35 35 35 36 36 37 36 37 37 37 37 36 36 37 36 36 36 36 36 36
32 32 32 32 33 33 33 34 34 35 35 36 36 37 37 38 38 39 40 40 40 40 40 40 41 40 40 39 39 39 39 39 38 38 38 38 38 37
Wind_Direction
242 239 236 236 236 235 234 234 233 232 232 232 233 232 232 232 231 230 231 232 233 234 235 235 236 238 240 241 244 246 248 251 252 254 256 258 261 263
246 242 239 238 239 237 236 236 233 232 234 234 233 234 234 234 233 233 233 233 234 235 236 236 237 239 240 242 245 246 249 252 254 255 256 259 261 263
254 248 243 242 241 238 236 236 235 234 234 234 235 235 236 236 236 236 237 236 236 236 237 238 239 239 241 244 245 246 248 252 254 256 258 260 262 264
260 251 246 244 242 237 236 235 236 236 235 235 235 236 237 236 237 236 237 238 238 237 238 239 238 240 241 244 244 246 248 251 253 255 258 260 262 263
275 261 253 250 246 240 238 238 238 238 238 237 237 236 236 235 237 236 237 238 237 238 239 239 239 240 241 243 245 247 248 251 253 254 257 260 261 262
287 274 265 256 251 244 240 240 241 241 239 238 239 239 239 237 238 238 238 239 239 239 240 241 240 240 241 243 244 247 249 251 253 254 256 258 260 262
316 294 278 264 256 250 245 244 242 241 241 241 241 242 241 241 239 239 239 240 241 240 240 241 242 242 243 244 246 247 248 249 251 254 255 257 260 262
342 323 302 278 263 254 249 246 244 243 244 244 245 245 244 243 241 241 241 240 241 241 240 241 243 243 244 245 246 246 247 249 252 254 255 256 259 261
341 331 318 300 280 264 256 253 249 248 248 247 247 248 247 246 245 245 243 243 241 242 242 243 244 246 246 246 246 246 246 250 253 254 253 255 257 260
344 339 329 315 298 280 268 263 256 254 253 252 251 251 251 249 249 247 246 242 241 241 242 244 245 246 248 248 249 249 248 248 251 253 253 254 256 259
341 337 332 323 311 299 282 272 265 263 260 258 259 256 255 255 253 248 247 245 243 243 243 245 246 246 246 248 249 251 251 251 252 253 253 253 256 258
337 332 328 321 312 304 293 284 276 271 267 264 261 258 257 256 256 252 249 247 245 244 245 245 246 248 247 248 250 251 251 252 253 253 254 255 256 258
337 332 328 324 318 311 299 288 280 275 269 266 264 261 259 257 257 256 254 253 250 248 248 248 248 248 249 250 252 254 254 254 255 255 256 256 257 259
335 333 329 325 321 317 310 299 287 279 275 272 271 268 263 261 261 261 259 259 258 254 253 252 251 251 251 252 253 254 254 255 255 256 257 257 257 259
326 325 323 322 319 314 310 307 300 291 282 277 274 272 269 268 265 264 263 262 259 259 259 258 256 254 253 254 254 255 256 256 256 257 257 258 259 259
323 320 319 315 314 313 308 306 303 298 291 286 281 277 274 272 269 267 265 264 262 261 261 261 262 260 258 257 258 257 257 257 256 257 258 258 258 258
318 317 315 313 311 309 308 304 300 297 293 289 285 283 279 275 273 270 268 267 266 265 263 263 263 263 261 259 259 257 257 257 257 257 257 256 256 258
310 309 308 306 304 302 301 300 298 294 293 292 289 286 283 281 278 275 273 270 270 269 267 264 263 264 263 261 259 258 258 258 258 257 257 256 255 256
303 303 302 301 300 299 296 295 294 293 291 290 289 287 284 283 282 280 277 274 273 271 269 267 266 265 265 264 262 259 259 259 258 257 256 256 255 255
298 298 297 297 296 295 295 293 292 291 290 289 288 287 285 283 281 279 278 276 273 272 270 269 267 266 265 264 263 262 261 259 258 258 257 256 256 255
296 295 294 293 292 292 292 291 291 290 289 288 288 287 286 285 282 280 278 276 274 273 271 270 268 267 265 264 262 262 262 261 260 259 259 258 257 256
295 294 293 292 291 291 290 289 289 288 287 287 286 286 285 284 283 281 278 276 274 272 271 269 268 267 266 264 262 260 261 261 260 258 257 257 256 255
294 294 293 292 291 291 290 290 289 288 287 286 285 285 284 283 282 280 279 277 275 273 271 269 267 266 265 264 262 260 259 259 259 257 256 256 255 254
Height
5749 5751 5754 5757 5760 5763 5766 5770 5774 5777 5781 5785 5789 5793 5797 5801 5805 5810 5813 5817 5821 5825 5828 5831 5835 5838 5840 5843 5845 5847 5849 5850 5852 5853 5855 5855 5856 5857
5745 5747 5750 5752 5754 5757 5760 5764 5767 5771 5775 5778 5782 5786 5790 5794 5798 5802 5806 5810 5813 5817 5820 5824 5827 5830 5833 5836 5839 5841 5843 5844 5846 5847 5848 5849 5850 5850
5742 5743 5745 5747 5749 5752 5755 5758 5761 5764 5768 5771 5775 5778 5782 5786 5790 5794 5798 5802 5805 5809 5812 5816 5819 5823 5826 5829 5831 5833 5835 5837 5839 5840 5841 5843 5843 5844
5740 5740 5742 5743 5745 5747 5749 5752 5755 5758 5761 5764 5768 5771 5775 5779 5782 5786 5790 5794 5797 5801 5804 5808 5811 5814 5818 5821 5823 5826 5828 5830 5831 5833 5834 5835 5836 5836
5737 5738 5738 5739 5740 5742 5744 5747 5749 5752 5754 5757 5761 5764 5767 5771 5774 5778 5782 5786 5789 5792 5796 5799 5803 5806 5809 5812 5815 5817 5820 5822 5824 5825 5826 5827 5828 5828
5735 5735 5736 5736 5737 5738 5740 5742 5744 5746 5748 5751 5754 5757 5760 5763 5767 5770 5774 5777 5781 5784 5787 5790 5794 5797 5800 5804 5806 5809 5811 5813 5815 5817 5818 5819 5820 5821
5734 5734 5734 5734 5734 5735 5736 5738 5739 5741 5743 5745 5748 5750 5753 5756 5759 5762 5765 5769 5772 5775 5778 5782 5785 5789 5791 5794 5797 5800 5802 5804 5806 5808 5809 5811 5812 5812
5733 5733 5732 5732 5732 5732 5733 5734 5735 5737 5739 5740 5743 5745 5746 5749 5752 5754 5757 5761 5764 5768 5770 5773 5777 5779 5782 5785 5787 5790 5793 5795 5797 5799 5800 5802 5803 5804
5733 5732 5731 5730 5730 5730 5730 5731 5732 5733 5734 5736 5737 5739 5740 5742 5745 5747 5750 5752 5756 5759 5761 5765 5768 5771 5773 5775 5778 5781 5783 5786 5788 5789 5791 5792 5794 5795
5732 5731 5729 5729 5728 5728 5728 5728 5729 5729 5730 5731 5732 5733 5735 5736 5738 5740 5742 5745 5748 5751 5753 5757 5759 5762 5764 5766 5769 5771 5773 5776 5778 5780 5781 5783 5784 5785
5732 5730 5729 5728 5727 5726 5726 5726 5726 5726 5726 5727 5728 5729 5730 5731 5732 5734 5736 5738 5741 5743 5745 5748 5750 5753 5755 5758 5760 5762 5764 5766 5768 5770 5772 5773 5775 5776
5731 5729 5728 5726 5725 5724 5724 5723 5723 5723 5723 5723 5724 5724 5725 5726 5727 5729 5730 5732 5733 5735 5737 5740 5742 5744 5746 5749 5750 5752 5754 5756 5758 5760 5762 5763 5765 5766
5730 5728 5726 5725 5723 5722 5721 5720 5720 5719 5719 5720 5720 5721 5721 5722 5722 5723 5724 5725 5727 5728 5730 5732 5734 5735 5738 5740 5741 5743 5745 5747 5748 5750 5752 5753 5755 5756
5728 5727 5725 5723 5722 5720 5719 5718 5717 5716 5716 5716 5716 5716 5717 5717 5717 5718 5719 5719 5720 5721 5722 5724 5726 5727 5729 5730 5732 5734 5735 5737 5738 5740 5742 5743 5744 5746
5726 5725 5723 5721 5720 5718 5717 5715 5714 5713 5713 5712 5712 5712 5712 5712 5712 5712 5713 5713 5714 5715 5715 5716 5718 5719 5720 5721 5723 5724 5725 5727 5728 5730 5731 5733 5734 5735
5724 5722 5720 5719 5717 5715 5714 5712 5711 5710 5709 5708 5708 5707 5707 5706 5706 5706 5707 5707 5707 5708 5708 5709 5709 5710 5711 5712 5713 5715 5716 5717 5718 5719 5721 5722 5724 5725
5720 5718 5717 5715 5713 5712 5710 5708 5707 5706 5705 5704 5703 5702 5701 5701 5700 5700 5700 5700 5700 5700 5700 5701 5701 5701 5702 5703 5704 5705 5706 5707 5708 5709 5711 5712 5714 5715
5716 5714 5712 5710 5709 5707 5705 5704 5702 5701 5700 5699 5697 5696 5695 5695 5694 5693 5693 5692 5692 5692 5692 5692 5692 5693 5693 5694 5695 5695 5696 5697 5698 5699 5701 5702 5704 5705
5710 5708 5706 5705 5703 5701 5699 5698 5696 5695 5694 5692 5691 5690 5689 5688 5687 5685 5684 5684 5683 5683 5683 5683 5683 5683 5684 5684 5685 5686 5687 5687 5688 5689 5690 5692 5694 5695
5704 5702 5700 5698 5696 5694 5692 5691 5689 5687 5686 5685 5683 5682 5680 5679 5678 5677 5676 5675 5674 5674 5673 5673 5673 5673 5673 5674 5675 5676 5676 5677 5678 5679 5680 5682 5683 5685
5696 5694 5692 5690 5688 5686 5684 5682 5681 5679 5677 5676 5674 5673 5671 5670 5668 5667 5666 5665 5664 5664 5664 5663 5662 5662 5662 5663 5664 5665 5665 5666 5667 5668 5669 5671 5672 5674
5687 5685 5683 5681 5679 5677 5675 5673 5671 5669 5667 5666 5664 5662 5660 5659 5658 5656 5655 5654 5653 5652 5652 5652 5651 5651 5651 5651 5652 5653 5654 5654 5655 5656 5658 5660 5661 5663
5677 5675 5673 5670 5668 5666 5664 5662 5660 5658 5656 5654 5652 5650 5648 5646 5645 5643 5642 5641 5640 5639 5638 5638 5638 5638 5638 5639 5640 5641 5641 5642 5643 5645 5647 5648 5650 5652